Vertical_Velocity
-1 -2 -2 -2 -1 -1 -2 -1 0 -0 1 2 1 1 2 2 1 1 0 -1 -1 1 1 1 1 -0 -0 -1 2 -3 -3 -3 -1 -1 -15 -6 2 -6 -2 -2 -4 -3 -4
-1 1 -1 -2 -1 -0 -2 -2 1 2 1 1 -0 -1 0 1 0 2 1 1 1 0 0 1 0 1 -3 -1 1 2 -2 -5 -0 1 -2 4 -8 -4 -2 -4 -3 2 1
-1 -0 -1 -1 -1 -1 -1 -2 -1 1 1 1 1 -0 -1 1 -0 -1 -0 0 -0 -2 -1 -2 -2 -1 -1 -2 0 -1 2 -3 -7 -3 -2 3 -2 -1 0 -2 -4 4 -4
-1 -2 0 -0 0 0 -1 -1 -0 1 2 1 0 -1 -0 -1 -0 -1 1 2 2 0 0 -0 -1 -2 -1 -1 -2 -1 1 -2 -2 -8 -3 -3 -2 1 -2 -1 -3 1 -0
1 -0 0 1 -0 -0 -1 1 1 1 1 -1 0 1 -0 1 -1 1 1 2 -0 -1 -1 -1 -1 -0 -0 -1 -1 -2 0 -1 -2 -2 -6 -2 -3 1 -3 -4 -7 -9 -5
2 1 2 0 -1 -1 1 1 2 1 2 2 2 0 -0 -1 0 0 2 0 0 -2 -0 -1 -1 0 -1 1 -1 -0 -2 -0 -2 -1 -4 -3 -1 -1 -1 2 2 -2 0
-1 1 1 -0 -1 -1 -2 -2 -1 -1 0 1 0 -1 0 2 1 1 2 1 1 0 0 0 1 -1 -1 -0 -1 -2 -2 -0 -0 -2 -1 -4 -4 -2 -0 -2 1 6 2
2 -0 -1 -0 -1 -1 -1 -1 -1 -1 -0 -1 -2 -0 0 -1 -1 3 2 2 2 -2 -2 -2 -2 -2 -1 0 -0 -1 1 -1 -1 -1 -0 -1 -1 1 -3 -0 -2 -2 0
-1 1 -0 -1 -1 -2 -1 -1 -1 -1 0 -1 -1 -0 1 -0 1 -0 1 2 1 1 -0 1 0 -0 -1 -0 -2 -2 -1 -0 1 -1 -2 -1 0 -1 -0 0 -1 -1 -4
0 0 -0 -1 -2 -0 1 1 2 2 1 -1 -1 -2 -0 -0 -1 -1 -0 0 -0 -0 0 -1 -0 -3 -2 1 1 -2 -1 -0 -1 -1 -2 -2 -3 -1 -2 -2 -1 -2 -2
-0 -1 -1 0 1 -1 -1 -2 -0 0 -0 1 1 0 -1 -2 -1 -1 -1 -0 -1 0 -1 -0 -1 0 -1 0 0 -1 -1 2 -0 1 2 -3 1 -5 -2 -1 -2 -2 -3
-2 -1 -0 -0 1 2 1 1 1 1 -0 -0 -0 0 1 0 1 -1 -1 1 -1 -2 0 -0 -1 -1 -1 -1 2 2 1 2 2 -0 2 -2 0 -1 -1 -0 -1 -2 1
-1 0 1 -0 0 0 0 -1 0 -0 -0 -1 -1 -1 -1 -0 0 0 0 0 -0 -1 -3 0 1 -0 -2 -2 -1 2 0 1 0 -1 -0 -1 2 -2 -1 -1 -1 -1 -2
3 2 1 0 -1 -0 0 0 0 2 2 1 0 0 0 -0 -0 -0 -0 -0 0 1 1 -0 -2 -1 -3 -1 -1 -1 0 -0 -1 -1 -0 -2 -2 -0 -0 0 -2 -2 -1
1 1 2 0 1 1 -1 -0 1 1 1 -0 -1 -0 -1 -0 -0 -1 -1 -1 -0 -0 1 -1 -5 -1 0 -1 -1 -1 -0 -1 -0 -3 -2 0 1 0 -2 -0 -2 -1 -1
0 -1 1 2 1 2 1 -1 -0 -1 -1 0 1 -0 -2 -2 -1 -1 -1 -0 0 -1 -0 1 2 -2 -1 -2 -4 -1 -3 -3 -2 -2 -4 -1 -1 -3 -2 -0 -0 1 0
-0 1 2 2 2 -1 -1 -1 -0 -2 -2 -1 -1 -0 0 -1 -1 -0 -1 -0 -3 -2 -3 -3 -1 -4 -1 -0 -1 -1 1 0 -3 0 -1 -2 -2 -1 -1 -3 -0 1 1
2 -1 -4 -4 -2 -1 -2 -1 -1 1 2 -0 -1 -1 -1 -1 -2 -3 -3 -2 -2 -3 -3 -3 -3 -1 -5 -1 -1 0 1 2 -1 -1 -1 1 -0 -4 -1 -1 3 2 2
-2 -3 -2 -0 -2 -2 -2 -2 -3 -2 -1 -1 -2 -2 -1 -1 -1 -1 -3 -5 -2 -4 -2 -5 -2 0 -5 -3 -3 0 0 1 1 1 -1 -1 1 -4 -1 5 1 1 4
-2 -2 -1 0 -3 -2 2 2 -0 -1 0 -3 -3 -4 -3 -2 -1 -1 -2 -2 -2 2 1 2 -4 -4 3 -4 -3 -3 -1 -1 -0 -2 -1 -2 -1 -1 -3 1 -0 5 -0
0 -3 -1 1 0 -3 -4 -1 1 -6 -1 0 1 -0 -2 1 -4 3 -4 0 -1 -1 0 3 3 -2 -7 -0 -6 -3 2 -2 4 2 1 -2 -4 2 2 -4 4 -2 -2
-0 -3 -0 2 1 -2 -3 1 3 -3 -1 -1 -1 1 -1 -4 -3 -2 0 -2 -4 -2 0 -1 4 -0 -1 -3 -3 -6 -4 -1 -0 5 3 2 -4 -3 -1 1 1 -0 -6
0 -3 1 3 1 -1 -6 0 -1 -3 -1 0 1 -1 -1 -2 -3 -3 -1 -2 -4 -9 -1 -3 -3 5 6 5 -7 -4 -5 -4 -4 -3 2 3 3 -2 -2 -6 -3 4 -3
-4 -5 -4 -5 1 -0 -2 -4 -2 -7 -2 0 3 1 -3 -1 -1 -5 -5 -6 1 -4 -4 -2 -4 -4 0 3 1 3 -0 -1 -7 -8 -3 1 0 2 2 1 -4 -3 1
2 -2 -5 -5 4 -1 -1 2 -8 -10 -3 -5 -1 1 -0 3 1 2 0 -2 5 -10 -6 1 -4 -7 3 2 -4 -5 3 4 4 -5 -2 4 -3 -1 2 4 2 -4 -3
-1 -1 -3 -3 2 1 4 8 -5 -2 -7 -6 0 2 -1 4 0 -1 3 5 -7 -2 -4 -6 -10 -0 -6 -5 -4 0 -1 -2 -2 -0 1 2 4 -1 -2 2 5 -1 -3
Height
5802 5799 5796 5792 5789 5786 5783 5781 5780 5780 5780 5780 5780 5779 5777 5776 5775 5773 5771 5769 5768 5768 5767 5766 5765 5764 5761 5758 5755 5750 5743 5736 5729 5717 5704 5688 5668 5645 5627 5615 5608 5607 5612
5795 5791 5788 5785 5782 5780 5778 5776 5776 5776 5777 5777 5776 5774 5772 5772 5770 5768 5765 5763 5762 5762 5761 5760 5759 5758 5755 5752 5748 5744 5738 5730 5722 5713 5701 5687 5667 5646 5631 5620 5615 5614 5618
5787 5784 5782 5779 5777 5775 5773 5772 5772 5773 5773 5772 5771 5769 5767 5766 5764 5762 5759 5757 5756 5756 5754 5754 5753 5751 5749 5745 5741 5737 5733 5726 5717 5709 5699 5688 5672 5653 5638 5628 5623 5623 5627
5781 5779 5776 5773 5771 5770 5769 5769 5769 5768 5768 5767 5765 5763 5762 5760 5758 5757 5753 5751 5750 5749 5749 5748 5747 5745 5742 5739 5735 5731 5726 5720 5714 5705 5697 5687 5676 5663 5648 5639 5634 5633 5637
5775 5773 5771 5768 5766 5765 5765 5765 5765 5764 5763 5761 5759 5758 5756 5754 5752 5751 5748 5745 5743 5743 5742 5741 5739 5737 5735 5733 5729 5724 5720 5715 5710 5704 5696 5688 5680 5671 5661 5653 5648 5645 5648
5770 5768 5766 5764 5762 5761 5761 5761 5760 5759 5758 5756 5754 5752 5750 5748 5746 5743 5741 5738 5736 5736 5735 5734 5732 5730 5728 5725 5722 5718 5714 5708 5705 5701 5696 5690 5683 5676 5671 5665 5660 5660 5661
5764 5763 5762 5761 5759 5759 5758 5757 5755 5753 5751 5750 5748 5746 5743 5741 5739 5736 5733 5730 5729 5729 5728 5726 5724 5722 5720 5717 5714 5711 5707 5703 5700 5697 5693 5689 5684 5679 5674 5671 5668 5667 5667
5760 5759 5758 5757 5756 5755 5753 5751 5749 5747 5745 5743 5740 5738 5735 5733 5730 5727 5725 5723 5722 5720 5719 5717 5716 5714 5712 5709 5707 5704 5700 5696 5694 5691 5689 5686 5683 5679 5675 5672 5670 5669 5668
5756 5755 5754 5752 5750 5749 5747 5745 5742 5740 5737 5735 5732 5728 5726 5723 5721 5718 5717 5716 5714 5712 5710 5708 5706 5704 5702 5700 5698 5695 5693 5690 5687 5685 5683 5681 5680 5677 5674 5671 5670 5668 5667
5751 5749 5748 5746 5744 5742 5739 5737 5734 5732 5729 5725 5722 5719 5716 5714 5712 5710 5708 5706 5704 5703 5701 5698 5696 5694 5692 5690 5688 5685 5683 5682 5679 5678 5676 5674 5673 5671 5670 5668 5666 5665 5664
5744 5743 5741 5738 5736 5734 5731 5728 5725 5723 5719 5716 5713 5710 5708 5705 5703 5701 5699 5697 5695 5693 5691 5689 5687 5684 5681 5679 5678 5675 5673 5672 5671 5669 5668 5665 5665 5663 5662 5661 5660 5658 5658
5736 5734 5730 5728 5726 5723 5720 5717 5714 5711 5709 5706 5703 5700 5698 5696 5693 5691 5689 5687 5685 5682 5680 5678 5675 5672 5670 5668 5666 5664 5662 5661 5660 5658 5657 5656 5655 5653 5652 5650 5649 5648 5648
5726 5723 5720 5718 5715 5711 5709 5706 5703 5701 5698 5695 5693 5690 5688 5685 5683 5680 5678 5675 5673 5671 5667 5665 5662 5660 5657 5655 5653 5652 5650 5648 5647 5646 5645 5643 5642 5641 5640 5638 5636 5635 5635
5715 5712 5708 5706 5703 5701 5698 5695 5692 5690 5687 5684 5682 5679 5676 5674 5671 5668 5666 5663 5660 5657 5654 5651 5649 5646 5644 5642 5640 5638 5636 5634 5632 5631 5629 5628 5627 5626 5625 5624 5622 5621 5620
5703 5700 5698 5695 5692 5689 5686 5683 5680 5678 5675 5672 5669 5666 5663 5659 5657 5654 5651 5648 5646 5643 5641 5638 5635 5632 5629 5627 5624 5622 5619 5618 5615 5613 5611 5610 5609 5607 5606 5605 5604 5604 5603
5692 5689 5686 5683 5680 5677 5674 5671 5667 5664 5661 5658 5655 5653 5650 5646 5643 5640 5637 5633 5630 5627 5624 5621 5618 5615 5613 5610 5607 5605 5602 5599 5597 5594 5592 5591 5589 5588 5587 5586 5584 5583 5582
5681 5677 5673 5670 5667 5664 5661 5658 5655 5652 5648 5645 5641 5639 5636 5633 5629 5625 5621 5618 5614 5611 5607 5604 5600 5596 5594 5591 5588 5585 5582 5578 5575 5573 5571 5569 5567 5566 5565 5564 5563 5561 5559
5668 5664 5662 5659 5655 5652 5649 5645 5641 5637 5634 5630 5627 5623 5619 5616 5612 5607 5603 5599 5595 5591 5587 5583 5579 5575 5572 5569 5566 5563 5560 5556 5552 5550 5547 5546 5542 5540 5541 5539 5538 5537 5535
5656 5653 5649 5646 5642 5638 5634 5631 5626 5621 5617 5613 5609 5604 5600 5596 5591 5587 5582 5578 5574 5569 5564 5560 5556 5553 5548 5545 5542 5540 5537 5534 5530 5527 5524 5523 5520 5517 5517 5517 5515 5514 5512
5642 5639 5635 5630 5625 5621 5617 5612 5608 5604 5600 5595 5589 5584 5579 5574 5569 5564 5559 5555 5551 5547 5543 5538 5533 5529 5527 5522 5520 5519 5517 5514 5512 5507 5504 5501 5501 5498 5495 5495 5493 5492 5488
5625 5620 5616 5612 5607 5602 5597 5592 5587 5582 5578 5574 5569 5563 5557 5552 5547 5543 5537 5534 5530 5526 5522 5519 5513 5508 5504 5501 5497 5495 5494 5492 5491 5487 5483 5479 5478 5479 5476 5474 5475 5471 5468
5604 5600 5596 5591 5585 5578 5574 5571 5566 5560 5556 5552 5547 5541 5535 5530 5526 5522 5517 5512 5507 5503 5500 5497 5494 5488 5483 5479 5475 5472 5469 5466 5467 5466 5462 5459 5455 5455 5455 5454 5453 5452 5449
5582 5577 5573 5569 5563 5556 5551 5548 5542 5537 5534 5529 5524 5519 5514 5508 5503 5499 5494 5490 5484 5481 5478 5474 5471 5469 5462 5458 5452 5448 5444 5442 5441 5441 5439 5438 5435 5434 5433 5431 5431 5431 5432
5562 5556 5551 5547 5542 5535 5530 5525 5520 5514 5511 5506 5501 5496 5491 5487 5481 5476 5470 5465 5459 5454 5451 5447 5444 5442 5440 5436 5430 5426 5422 5419 5416 5415 5415 5415 5414 5413 5412 5410 5409 5410 5412
5538 5533 5527 5524 5521 5515 5509 5502 5496 5490 5487 5483 5479 5474 5468 5463 5458 5452 5446 5440 5437 5428 5425 5423 5416 5411 5411 5408 5404 5401 5398 5395 5393 5390 5390 5391 5388 5390 5391 5391 5390 5390 5392
5514 5508 5502 5498 5495 5491 5486 5478 5471 5463 5459 5457 5454 5448 5442 5438 5432 5427 5424 5418 5410 5406 5400 5396 5389 5385 5380 5376 5374 5373 5369 5366 5364 5362 5364 5364 5365 5364 5366 5368 5369 5369 5372